Regional Weather Roundup
Issued by NWS

Home | Current Version | Previous Version | Graphics & Text | Print | Product List | Glossary On
Versions: 1 2 3 4 5 6 7 8 9 10 11 12 13 14 15 16 17 18 19 20 21 22 23 24 25 26 27 28 29 30 31 32 33 34 35 36 37 38 39 40 41 42 43 44 45 46 47 48 49 50
000
ASUS43 KBIS 032202
RWRND

NORTH DAKOTA REGIONAL WEATHER ROUNDUP
NATIONAL WEATHER SERVICE BISMARCK ND
400 PM CST SAT DEC 03 2016

NOTE: "FAIR" INDICATES FEW OR NO CLOUDS BELOW 12,000 FEET WITH NO
SIGNIFICANT WEATHER AND/OR OBSTRUCTIONS TO VISIBILITY.


NDZ001>003-009>011-017-032300-
NORTHWEST NORTH DAKOTA

CITY           SKY/WX    TMP DP  RH WIND       PRES   REMARKS
WILLISTON      CLOUDY    33  27  78 SW10      29.75R
MINOT          MOCLDY    28  23  81 S12       29.79S WCI  18
MINOT AFB      MOCLDY    25  21  84 S10       29.79S WCI  15
$$

NDZ018>021-031>035-040>046-032300-
SOUTHWEST NORTH DAKOTA

CITY           SKY/WX    TMP DP  RH WIND       PRES   REMARKS
BISMARCK       CLEAR     27  24  89 S8        29.87F WCI  19
DICKINSON      CLOUDY    30  26  85 SW10      29.77S
GARRISON         N/A     26  22  84 S16       29.81F WCI  14
HETTINGER ARPT CLOUDY    31  25  78 CALM      29.83F
$$

NDZ004>008-012>016-024-026-027-054-032300-
NORTHEAST NORTH DAKOTA

CITY           SKY/WX    TMP DP  RH WIND       PRES   REMARKS
GRAND FORKS    CLOUDY    31  24  75 SE20G25   30.03F WCI  19
GRND FRKS AFB  CLOUDY    30  24  79 S14G23    30.02F WCI  19
DEVILS LAKE    CLOUDY    31  27  85 SE17G26   29.91F WCI  19
$$

NDZ022-023-025-028>030-036>039-047>053-032300-
SOUTHEAST NORTH DAKOTA

CITY           SKY/WX    TMP DP  RH WIND       PRES   REMARKS
FARGO          CLOUDY    33  25  72 S17G31    30.05F
JAMESTOWN      CLOUDY    32  28  85 SE16      29.93S
$$





USA.gov is the U.S. government's official web portal to all federal, state and local government web resources and services.